When you browse on this site, cookies collect data to enhance your experience and personalize the content and advertising you see.
Visit our Privacy Policy to learn more. By continuing to use the site, you agree to this use of cookies and data.

Meteo pe oră la Asciano

Astăzi, 8 August, Sâmbătă

Timp Temperatura Precipitaţii Vânt Presiune Umiditate
00:00 +21°C° 0 mm 2 m/s 742 mmHg 63%
01:00 +21°C° 0 mm 2 m/s 742 mmHg 60%
02:00 +21°C° 0 mm 2 m/s 742 mmHg 62%
03:00 +20°C° 0 mm 2 m/s 742 mmHg 63%
04:00 +20°C° 0 mm 2 m/s 742 mmHg 65%
05:00 +21°C° 0 mm 2 m/s 742 mmHg 63%
06:00 +24°C° 0 mm 2 m/s 742 mmHg 61%
07:00 +25°C° 0 mm 2 m/s 742 mmHg 58%
08:00 +28°C° 0 mm 3 m/s 742 mmHg 50%
09:00 +30°C° 0 mm 4 m/s 742 mmHg 42%
10:00 +34°C° 0 mm 5 m/s 743 mmHg 34%
11:00 +35°C° 0 mm 6 m/s 742 mmHg 32%
12:00 +35°C° 0 mm 6 m/s 742 mmHg 30%
13:00 +36°C° 0 mm 6 m/s 742 mmHg 28%
14:00 +36°C° 0 mm 6 m/s 742 mmHg 29%
15:00 +35°C° 0 mm 6 m/s 742 mmHg 30%
16:00 +35°C° 0 mm 6 m/s 741 mmHg 31%
17:00 +33°C° 0 mm 5 m/s 741 mmHg 36%
18:00 +32°C° 0 mm 4 m/s 741 mmHg 41%
19:00 +29°C° 0 mm 3 m/s 741 mmHg 46%
20:00 +27°C° 0 mm 3 m/s 741 mmHg 51%
21:00 +26°C° 0 mm 2 m/s 741 mmHg 57%
22:00 +24°C° 0 mm 2 m/s 741 mmHg 62%
23:00 +23°C° 0 mm 2 m/s 741 mmHg 63%

Mâine, 9 August, Duminică

Timp Temperatura Precipitaţii Vânt Presiune Umiditate
00:00 +23°C° 0 mm 2 m/s 741 mmHg 64%
01:00 +23°C° 0 mm 1 m/s 741 mmHg 65%
02:00 +23°C° 0 mm 1 m/s 741 mmHg 65%
03:00 +22°C° 0 mm 1 m/s 741 mmHg 65%
04:00 +22°C° 0 mm 1 m/s 741 mmHg 66%
05:00 +23°C° 0 mm 1 m/s 741 mmHg 63%
06:00 +24°C° 0 mm 1 m/s 741 mmHg 59%
07:00 +26°C° 0 mm 1 m/s 741 mmHg 56%
08:00 +28°C° 0 mm 2 m/s 741 mmHg 48%
09:00 +31°C° 0 mm 3 m/s 742 mmHg 40%
10:00 +35°C° 0 mm 4 m/s 742 mmHg 32%
11:00 +36°C° 0 mm 4 m/s 742 mmHg 29%
12:00 +37°C° 0 mm 4 m/s 741 mmHg 26%
13:00 +38°C° 0 mm 4 m/s 741 mmHg 23%
14:00 +38°C° 0 mm 4 m/s 741 mmHg 23%
15:00 +38°C° 0 mm 4 m/s 741 mmHg 23%
16:00 +38°C° 0 mm 4 m/s 740 mmHg 23%
17:00 +36°C° 0 mm 4 m/s 740 mmHg 29%
18:00 +34°C° 0 mm 3 m/s 740 mmHg 34%
19:00 +31°C° 0 mm 3 m/s 740 mmHg 40%
20:00 +29°C° 0 mm 2 m/s 740 mmHg 45%
21:00 +27°C° 0 mm 2 m/s 740 mmHg 50%
22:00 +25°C° 0 mm 1 m/s 740 mmHg 55%
23:00 +24°C° 0 mm 1 m/s 740 mmHg 56%

Poimâine, 10 August, Luni

Timp Temperatura Precipitaţii Vânt Presiune Umiditate
00:00 +23°C° 0 mm 1 m/s 740 mmHg 58%
01:00 +22°C° 0 mm 1 m/s 740 mmHg 59%
02:00 +22°C° 0 mm 1 m/s 740 mmHg 60%
03:00 +22°C° 0 mm 1 m/s 739 mmHg 61%
04:00 +21°C° 0 mm 1 m/s 739 mmHg 61%
05:00 +22°C° 0 mm 1 m/s 739 mmHg 57%
06:00 +24°C° 0 mm 1 m/s 739 mmHg 53%
07:00 +25°C° 0 mm 1 m/s 740 mmHg 48%
08:00 +28°C° 0 mm 1 m/s 740 mmHg 41%
09:00 +31°C° 0 mm 1 m/s 740 mmHg 33%
10:00 +36°C° 0 mm 2 m/s 741 mmHg 25%
11:00 +37°C° 0 mm 2 m/s 741 mmHg 23%
12:00 +38°C° 0 mm 2 m/s 741 mmHg 20%
13:00 +39°C° 0 mm 2 m/s 740 mmHg 18%
14:00 +39°C° 0 mm 2 m/s 740 mmHg 19%
15:00 +39°C° 0 mm 3 m/s 740 mmHg 20%
16:00 +39°C° 0 mm 3 m/s 740 mmHg 21%
17:00 +36°C° 0 mm 3 m/s 740 mmHg 27%
18:00 +34°C° 0 mm 3 m/s 739 mmHg 33%
19:00 +31°C° 0 mm 2 m/s 739 mmHg 39%
20:00 +29°C° 0 mm 2 m/s 740 mmHg 45%
21:00 +27°C° 0 mm 1 m/s 740 mmHg 51%
22:00 +23°C° 0 mm 0 m/s 740 mmHg 56%
23:00 +22°C° 0 mm 0 m/s 740 mmHg 59%

11 August, Marţi

Timp Temperatura Precipitaţii Vânt Presiune Umiditate
00:00 +22°C° 0 mm 0 m/s 740 mmHg 61%
01:00 +21°C° 0 mm 0 m/s 740 mmHg 63%
02:00 +21°C° 0 mm 0 m/s 740 mmHg 65%
03:00 +20°C° 0 mm 0 m/s 740 mmHg 67%
04:00 +20°C° 0 mm 0 m/s 740 mmHg 68%
05:00 +21°C° 0 mm 0 m/s 740 mmHg 65%
06:00 +22°C° 0 mm 0 m/s 740 mmHg 61%
07:00 +23°C° 0 mm 0 m/s 740 mmHg 58%
08:00 +26°C° 0 mm 0 m/s 741 mmHg 49%
09:00 +31°C° 0 mm 1 m/s 741 mmHg 40%
10:00 +34°C° 0 mm 1 m/s 742 mmHg 31%
11:00 +36°C° 0 mm 2 m/s 741 mmHg 29%
12:00 +37°C° 0 mm 2 m/s 741 mmHg 26%
13:00 +38°C° 0 mm 3 m/s 741 mmHg 24%
14:00 +38°C° 0 mm 4 m/s 741 mmHg 25%
15:00 +37°C° 0 mm 4 m/s 741 mmHg 25%
16:00 +37°C° 0 mm 5 m/s 741 mmHg 26%
17:00 +35°C° 0 mm 4 m/s 740 mmHg 31%
18:00 +33°C° 0 mm 3 m/s 740 mmHg 35%
19:00 +29°C° 0 mm 3 m/s 740 mmHg 40%
20:00 +28°C° 0 mm 2 m/s 740 mmHg 46%
21:00 +26°C° 0 mm 1 m/s 740 mmHg 51%
22:00 +22°C° 0 mm 0 m/s 740 mmHg 57%
23:00 +21°C° 0 mm 0 m/s 740 mmHg 59%

12 August, Miercuri

Timp Temperatura Precipitaţii Vânt Presiune Umiditate
00:00 +21°C° 0 mm 0 m/s 740 mmHg 61%
01:00 +20°C° 0 mm 0 m/s 740 mmHg 63%
02:00 +20°C° 0 mm 0 m/s 740 mmHg 64%
03:00 +19°C° 0 mm 0 m/s 740 mmHg 65%
04:00 +19°C° 0 mm 0 m/s 740 mmHg 66%
05:00 +20°C° 0 mm 0 m/s 740 mmHg 62%
06:00 +22°C° 0 mm 0 m/s 740 mmHg 57%
07:00 +23°C° 0 mm 0 m/s 740 mmHg 53%
08:00 +28°C° 0 mm 1 m/s 741 mmHg 45%
09:00 +31°C° 0 mm 1 m/s 741 mmHg 37%
10:00 +34°C° 0 mm 1 m/s 741 mmHg 29%
11:00 +36°C° 0 mm 2 m/s 741 mmHg 27%
12:00 +37°C° 0 mm 2 m/s 741 mmHg 25%
13:00 +38°C° 0 mm 3 m/s 741 mmHg 24%
14:00 +38°C° 0 mm 4 m/s 741 mmHg 25%
15:00 +37°C° 0 mm 4 m/s 740 mmHg 26%
16:00 +37°C° 0 mm 5 m/s 740 mmHg 27%
17:00 +35°C° 0 mm 4 m/s 740 mmHg 32%
18:00 +33°C° 0 mm 3 m/s 740 mmHg 38%
19:00 +29°C° 0 mm 3 m/s 740 mmHg 44%
20:00 +27°C° 0 mm 2 m/s 740 mmHg 51%
21:00 +26°C° 0 mm 1 m/s 740 mmHg 58%
22:00 +24°C° 0 mm 1 m/s 740 mmHg 64%
23:00 +23°C° 0 mm 1 m/s 740 mmHg 67%

13 August, Joi

Timp Temperatura Precipitaţii Vânt Presiune Umiditate
00:00 +22°C° 0 mm 1 m/s 740 mmHg 69%
01:00 +22°C° 0 mm 1 m/s 740 mmHg 71%
02:00 +22°C° 0 mm 1 m/s 740 mmHg 71%
03:00 +21°C° 0 mm 1 m/s 740 mmHg 72%
04:00 +19°C° 0 mm 0 m/s 740 mmHg 73%
05:00 +22°C° 0 mm 1 m/s 740 mmHg 67%
06:00 +24°C° 0 mm 1 m/s 740 mmHg 62%
07:00 +25°C° 0 mm 1 m/s 740 mmHg 57%
08:00 +28°C° 0 mm 1 m/s 741 mmHg 48%
09:00 +31°C° 0 mm 1 m/s 741 mmHg 39%
10:00 +34°C° 0 mm 2 m/s 741 mmHg 30%
11:00 +36°C° 0 mm 2 m/s 741 mmHg 28%
12:00 +37°C° 0 mm 3 m/s 741 mmHg 25%
13:00 +39°C° 0 mm 3 m/s 741 mmHg 22%
14:00 +38°C° 0 mm 4 m/s 740 mmHg 23%
15:00 +39°C° 0 mm 5 m/s 740 mmHg 24%
16:00 +39°C° 0 mm 5 m/s 740 mmHg 25%
17:00 +35°C° 0 mm 4 m/s 740 mmHg 33%
18:00 +32°C° 0 mm 4 m/s 740 mmHg 42%
19:00 +29°C° 0 mm 3 m/s 740 mmHg 50%
20:00 +27°C° 0 mm 2 m/s 740 mmHg 60%
21:00 +25°C° 0 mm 2 m/s 740 mmHg 69%
22:00 +23°C° 0 mm 1 m/s 740 mmHg 79%
23:00 +22°C° 0 mm 1 m/s 740 mmHg 78%
Arată mai mult